Weather History for Miami, FL

Change the Weather History Date:

Thursday, December 12, 2013

  Actual Average Record
Temperature  
Mean Temperature 75 °F 71 °F  
Max Temperature 82 °F 78 °F 87 °F (1986)
Min Temperature 67 °F 64 °F 30 °F (1934)
Degree Days  
Heating Degree Days 0 1  
Month to date heating degree days 0 8  
Since 1 July heating degree days 2 11  
Cooling Degree Days 10 7  
Month to date cooling degree days 128 89  
Year to date cooling degree days 4669 4461  
Growing Degree Days 25 (Base 50)    
Moisture  
Dew Point 66 °F    
Average Humidity 77    
Maximum Humidity 93    
Minimum Humidity 61    
Precipitation  
Precipitation 0.00 in 0.07 in 0.51 in (1966)
Month to date precipitation 0.44 0.83  
Year to date precipitation 66.19 60.69  
Snow  
Snow 0.00 in - - ()
Month to date snowfall 0.0  
Since 1 July snowfall 0.0  
Snow Depth 0.00 in    
Sea Level Pressure  
Sea Level Pressure 30.17 in    
Wind  
Wind Speed 5 mph (North)    
Max Wind Speed 16 mph    
Max Gust Speed 23 mph    
Visibility 10 miles    
Events      
T = Trace of Precipitation, MM = Missing Value Source: NWS Daily Summary

Daily Weather History Graph

Daily Weather History Graph

Search for Another Location

Airport:

Trip Planner

Search our weather history database for the weather conditions in past years. The results will help you decide how hot, cold, wet, or windy it might be!

Date:

Astronomy

Dec. 12, 2013 Rise Set
Actual Time 6:58 AM EST 5:31 PM EST
Civil Twilight 6:33 AM EST 5:56 PM EST
Nautical Twilight 6:04 AM EST 6:25 PM EST
Astronomical Twilight 5:36 AM EST 6:53 PM EST
Moon 2:20 PM EST (12/12) 2:39 AM EST (12/12)
Length of Visible Light 11h 23m
Length of Day
10h 33m
Waxing Gibbous, 80% of the Moon is Illuminated
Dec 12
Waxing Gibbous
Dec 17
Full
Dec 25
Last Quarter
Jan 1
New
Jan 7
First Quarter

Hourly Weather History & Observations

Time (EST) Temp. Heat Index Dew Point Humidity Pressure Visibility Wind Dir Wind Speed Gust Speed Precip Events Conditions
12:53 AM 73.0 °F - 68.0 °F 84% 30.16 in 10.0 mi Calm Calm - N/A   Scattered Clouds
1:53 AM 73.9 °F - 69.1 °F 85% 30.15 in 10.0 mi Calm Calm - N/A   Scattered Clouds
2:53 AM 73.0 °F - 70.0 °F 90% 30.15 in 10.0 mi North 3.5 mph - N/A   Scattered Clouds
3:53 AM 72.0 °F - 69.1 °F 91% 30.14 in 10.0 mi Calm Calm - N/A   Scattered Clouds
4:53 AM 73.0 °F - 70.0 °F 90% 30.15 in 10.0 mi North 3.5 mph - N/A   Mostly Cloudy
5:53 AM 73.0 °F - 69.1 °F 87% 30.16 in 10.0 mi North 4.6 mph - N/A   Scattered Clouds
6:53 AM 73.0 °F - 70.0 °F 90% 30.17 in 10.0 mi Calm Calm - N/A   Mostly Cloudy
7:53 AM 75.0 °F - 70.0 °F 84% 30.19 in 10.0 mi NNW 3.5 mph - N/A   Mostly Cloudy
8:53 AM 77.0 °F - 71.1 °F 82% 30.21 in 10.0 mi North 4.6 mph - N/A   Mostly Cloudy
9:53 AM 80.1 °F 83.6 °F 71.1 °F 74% 30.22 in 10.0 mi Variable 5.8 mph - N/A   Mostly Cloudy
10:19 AM 78.8 °F - 69.8 °F 74% 30.22 in 10.0 mi Variable 6.9 mph - N/A   Mostly Cloudy
10:53 AM 78.1 °F - 70.0 °F 76% 30.22 in 10.0 mi NNW 12.7 mph - N/A   Mostly Cloudy
11:53 AM 78.1 °F - 69.1 °F 74% 30.20 in 10.0 mi NNW 6.9 mph - N/A   Mostly Cloudy
12:29 PM 77.0 °F - 69.8 °F 78% 30.19 in 10.0 mi NNW 13.8 mph 19.6 mph N/A   Mostly Cloudy
12:53 PM 78.1 °F - 68.0 °F 71% 30.17 in 10.0 mi North 6.9 mph - N/A   Mostly Cloudy
12:56 PM 78.8 °F - 66.2 °F 65% 30.17 in 10.0 mi NNE 9.2 mph - N/A   Mostly Cloudy
1:53 PM 81.0 °F 83.0 °F 66.0 °F 60% 30.15 in 10.0 mi NNW 9.2 mph 18.4 mph N/A   Mostly Cloudy
2:53 PM 78.1 °F - 68.0 °F 71% 30.14 in 10.0 mi ENE 8.1 mph - N/A   Mostly Cloudy
3:53 PM 77.0 °F - 66.9 °F 71% 30.13 in 10.0 mi NNE 15.0 mph 20.7 mph N/A   Mostly Cloudy
4:53 PM 75.0 °F - 64.0 °F 69% 30.15 in 10.0 mi NNE 10.4 mph 17.3 mph N/A   Mostly Cloudy
5:53 PM 72.0 °F - 61.0 °F 68% 30.16 in 10.0 mi Variable 6.9 mph 17.3 mph N/A   Mostly Cloudy
6:53 PM 71.1 °F - 59.0 °F 66% 30.17 in 10.0 mi Variable 6.9 mph - N/A   Mostly Cloudy
7:53 PM 71.1 °F - 57.9 °F 63% 30.18 in 10.0 mi North 8.1 mph 16.1 mph N/A   Scattered Clouds
8:53 PM 69.1 °F - 57.9 °F 68% 30.19 in 10.0 mi North 9.2 mph - N/A   Scattered Clouds
9:53 PM 69.1 °F - 57.9 °F 68% 30.20 in 10.0 mi North 4.6 mph - N/A   Scattered Clouds
10:53 PM 68.0 °F - 57.9 °F 70% 30.19 in 10.0 mi Variable 4.6 mph - N/A   Scattered Clouds
11:53 PM 66.9 °F - 59.0 °F 76% 30.19 in 10.0 mi NNW 4.6 mph - N/A   Scattered Clouds